User: anonymous   Login
Location: Muenchen
(48.1800°N, 11.5800°E)
Time: 21:07:46
(UTC+01:00)
Language:

Cosmos 2233 Rocket - Orbit

View from above orbital plane
View from above orbital plane
View from above satellite
View from above satellite

Ground track
Ground track

The orbit data is extracted from the following two-line orbital elements,

1 22488U 93008B   17017.95876536 -.00000079 +00000-0 -93884-4 0  9993
2 22488 082.9418 190.2259 0024305 286.8415 238.0430 13.77708231203288
Epoch (UTC): 17 January 2017 23:00:37
Eccentricity: 0.0024305
inclination: 82.9418°
perigee height: 954 km
apogee height: 990 km
right ascension of ascending node: 190.2259°
argument of perigee: 286.8415°
revolutions per day: 13.77708231
mean anomaly at epoch: 238.0430°
orbit number at epoch: 20328

The dashed part of the orbit path shows where the satellite is in the earth's shadow,  

DLR